Time,TemperatureF,DewpointF,PressureIn,WindDirection,WindDirectionDegrees,WindSpeedMPH,WindSpeedGustMPH,Humidity,HourlyPrecipIn,Conditions,Clouds,dailyrainin,SoftwareType,DateUTC
2013-06-18 00:02:00,54.7,53.2,30.05,North,352,11.0,16.0,95,0.00,,,0.00,meteohub,2013-06-18 07:02:00,
2013-06-18 00:07:00,54.7,53.2,30.05,North,356,6.0,15.0,95,0.00,,,0.00,meteohub,2013-06-18 07:07:00,
2013-06-18 00:12:00,54.5,53.1,30.04,North,4,8.0,15.0,95,0.00,,,0.00,meteohub,2013-06-18 07:12:00,
2013-06-18 00:17:00,54.5,53.1,30.05,NNE,27,5.0,12.0,95,0.00,,,0.00,meteohub,2013-06-18 07:17:00,
2013-06-18 00:22:00,54.5,53.1,30.04,NNW,338,4.0,12.0,95,0.00,,,0.00,meteohub,2013-06-18 07:22:00,
2013-06-18 00:27:00,54.5,53.1,30.04,NNE,23,6.0,12.0,95,0.00,,,0.00,meteohub,2013-06-18 07:27:00,
2013-06-18 00:32:00,54.5,53.1,30.04,WNW,290,3.0,12.0,95,0.00,,,0.00,meteohub,2013-06-18 07:32:00,
2013-06-18 00:37:00,54.3,52.9,30.04,North,0,6.0,16.0,95,0.00,,,0.00,meteohub,2013-06-18 07:37:00,
2013-06-18 00:42:00,54.3,52.9,30.04,NNW,340,4.0,16.0,95,0.00,,,0.00,meteohub,2013-06-18 07:42:00,
2013-06-18 00:47:00,54.3,53.2,30.04,NNW,348,5.0,15.0,96,0.00,,,0.00,meteohub,2013-06-18 07:47:00,
2013-06-18 00:52:00,54.3,52.9,30.04,NNE,20,9.0,12.0,95,0.00,,,0.00,meteohub,2013-06-18 07:52:00,
2013-06-18 00:57:00,54.3,52.9,30.04,North,1,5.0,15.0,95,0.00,,,0.00,meteohub,2013-06-18 07:57:00,
2013-06-18 01:02:00,54.3,52.9,30.04,North,1,3.0,15.0,95,0.00,,,0.00,meteohub,2013-06-18 08:02:00,
2013-06-18 01:07:00,54.3,52.9,30.04,NW,312,7.0,15.0,95,0.00,,,0.00,meteohub,2013-06-18 08:07:00,
2013-06-18 01:12:00,54.3,52.9,30.04,NE,37,3.0,14.0,95,0.00,,,0.00,meteohub,2013-06-18 08:12:00,
2013-06-18 01:17:00,54.3,52.9,30.04,North,1,1.0,14.0,95,0.00,,,0.00,meteohub,2013-06-18 08:17:00,
2013-06-18 01:22:00,54.3,52.9,30.04,North,354,7.0,11.0,95,0.00,,,0.00,meteohub,2013-06-18 08:22:00,
2013-06-18 01:27:00,54.3,52.9,30.04,North,359,3.0,10.0,95,0.00,,,0.00,meteohub,2013-06-18 08:27:00,
2013-06-18 01:32:00,54.3,52.9,30.04,NNW,328,5.0,12.0,95,0.00,,,0.00,meteohub,2013-06-18 08:32:00,
2013-06-18 01:37:00,54.3,52.7,30.04,NNE,26,6.0,13.0,94,0.00,,,0.00,meteohub,2013-06-18 08:37:00,
2013-06-18 01:42:00,54.3,52.7,30.04,North,352,7.0,13.0,94,0.00,,,0.00,meteohub,2013-06-18 08:42:00,
2013-06-18 01:47:00,54.3,52.7,30.04,NE,37,4.0,14.0,94,0.00,,,0.00,meteohub,2013-06-18 08:47:00,
2013-06-18 01:52:00,54.3,52.7,30.04,North,352,7.0,14.0,94,0.00,,,0.00,meteohub,2013-06-18 08:52:00,
2013-06-18 01:57:00,54.3,52.7,30.04,North,352,3.0,13.0,94,0.00,,,0.00,meteohub,2013-06-18 08:57:00,
2013-06-18 02:02:00,54.3,52.7,30.03,North,356,6.0,13.0,94,0.00,,,0.00,meteohub,2013-06-18 09:02:00,
2013-06-18 02:07:00,54.3,52.3,30.04,NW,316,7.0,13.0,93,0.00,,,0.00,meteohub,2013-06-18 09:07:00,
2013-06-18 02:12:00,54.1,52.2,30.03,NW,312,6.0,13.0,93,0.00,,,0.00,meteohub,2013-06-18 09:12:00,
2013-06-18 02:17:00,54.3,52.3,30.03,North,1,5.0,12.0,93,0.00,,,0.00,meteohub,2013-06-18 09:17:00,
2013-06-18 02:23:00,54.3,52.3,30.03,NNW,340,4.0,13.0,93,0.00,,,0.00,meteohub,2013-06-18 09:23:00,
2013-06-18 02:28:00,54.3,52.3,30.03,North,8,6.0,13.0,93,0.00,,,0.00,meteohub,2013-06-18 09:28:00,
2013-06-18 02:33:00,54.3,52.3,30.03,North,354,10.0,15.0,93,0.00,,,0.00,meteohub,2013-06-18 09:33:00,
2013-06-18 02:38:00,54.3,52.3,30.03,NNE,20,3.0,15.0,93,0.00,,,0.00,meteohub,2013-06-18 09:38:00,
2013-06-18 02:43:00,54.3,52.3,30.03,NNW,346,6.0,15.0,93,0.00,,,0.00,meteohub,2013-06-18 09:43:00,
2013-06-18 02:48:00,54.1,52.2,30.03,NW,314,3.0,15.0,93,0.00,,,0.00,meteohub,2013-06-18 09:48:00,
2013-06-18 02:53:00,54.1,52.2,30.03,NNE,25,11.0,15.0,93,0.00,,,0.00,meteohub,2013-06-18 09:53:00,
2013-06-18 02:58:00,54.1,52.2,30.03,NNW,338,10.0,13.0,93,0.00,,,0.00,meteohub,2013-06-18 09:58:00,
2013-06-18 03:03:00,54.1,52.2,30.02,NNW,335,8.0,15.0,93,0.00,,,0.00,meteohub,2013-06-18 10:03:00,
2013-06-18 03:08:00,54.1,52.2,30.02,NNW,348,5.0,15.0,93,0.00,,,0.00,meteohub,2013-06-18 10:08:00,
2013-06-18 03:13:00,54.1,52.2,30.02,NNE,15,8.0,15.0,93,0.00,,,0.00,meteohub,2013-06-18 10:13:00,
2013-06-18 03:19:00,54.1,52.2,30.02,NNW,342,10.0,15.0,93,0.00,,,0.00,meteohub,2013-06-18 10:19:00,
2013-06-18 03:24:00,54.1,52.2,30.02,North,358,17.0,17.0,93,0.00,,,0.00,meteohub,2013-06-18 10:24:00,
2013-06-18 03:29:00,54.1,52.2,30.02,NNW,346,11.0,15.0,93,0.00,,,0.00,meteohub,2013-06-18 10:29:00,
2013-06-18 03:34:00,54.1,52.2,30.03,NW,319,11.0,17.0,93,0.00,,,0.00,meteohub,2013-06-18 10:34:00,
2013-06-18 03:39:00,54.1,52.2,30.03,NNE,18,13.0,17.0,93,0.00,,,0.00,meteohub,2013-06-18 10:39:00,
2013-06-18 03:44:00,54.1,52.2,30.03,NNE,25,7.0,15.0,93,0.00,,,0.00,meteohub,2013-06-18 10:44:00,
2013-06-18 03:49:00,54.1,52.2,30.03,NNW,333,7.0,16.0,93,0.00,,,0.00,meteohub,2013-06-18 10:49:00,
2013-06-18 03:54:00,54.1,52.2,30.03,NNE,25,11.0,16.0,93,0.00,,,0.00,meteohub,2013-06-18 10:54:00,
2013-06-18 03:59:00,54.1,52.2,30.03,NNE,18,4.0,17.0,93,0.00,,,0.00,meteohub,2013-06-18 10:59:00,
2013-06-18 04:05:00,54.1,52.2,30.02,North,355,11.0,17.0,93,0.00,,,0.00,meteohub,2013-06-18 11:05:00,
2013-06-18 04:10:00,54.1,51.8,30.03,NNW,340,7.0,16.0,92,0.00,,,0.00,meteohub,2013-06-18 11:10:00,
2013-06-18 04:15:00,54.1,51.8,30.03,NNE,15,8.0,16.0,92,0.00,,,0.00,meteohub,2013-06-18 11:15:00,
2013-06-18 04:20:00,54.3,52.0,30.03,North,6,10.0,16.0,92,0.00,,,0.00,meteohub,2013-06-18 11:20:00,
2013-06-18 04:25:00,54.3,52.0,30.02,NW,318,8.0,14.0,92,0.00,,,0.00,meteohub,2013-06-18 11:25:00,
2013-06-18 04:30:00,54.3,52.0,30.03,North,4,4.0,15.0,92,0.00,,,0.00,meteohub,2013-06-18 11:30:00,
2013-06-18 04:35:00,54.1,51.8,30.02,NNE,32,5.0,15.0,92,0.00,,,0.00,meteohub,2013-06-18 11:35:00,
2013-06-18 04:40:00,54.1,51.8,30.03,NE,43,3.0,18.0,92,0.00,,,0.00,meteohub,2013-06-18 11:40:00,
2013-06-18 04:45:00,54.1,51.8,30.02,NNE,12,5.0,18.0,92,0.00,,,0.00,meteohub,2013-06-18 11:45:00,
2013-06-18 04:50:00,54.1,51.8,30.03,North,352,11.0,18.0,92,0.00,,,0.00,meteohub,2013-06-18 11:50:00,
2013-06-18 04:55:00,54.1,51.8,30.03,North,349,6.0,16.0,92,0.00,,,0.00,meteohub,2013-06-18 11:55:00,
2013-06-18 05:01:00,54.1,51.8,30.03,North,356,5.0,15.0,92,0.00,,,0.00,meteohub,2013-06-18 12:01:00,
2013-06-18 05:06:00,54.1,51.8,30.03,NNE,25,4.0,14.0,92,0.00,,,0.00,meteohub,2013-06-18 12:06:00,
2013-06-18 05:11:00,54.1,51.6,30.03,NW,324,4.0,14.0,91,0.00,,,0.00,meteohub,2013-06-18 12:11:00,
2013-06-18 05:16:00,54.1,51.6,30.03,ESE,118,5.0,15.0,91,0.00,,,0.00,meteohub,2013-06-18 12:16:00,
2013-06-18 05:21:00,54.1,51.6,30.03,NNE,13,8.0,15.0,91,0.00,,,0.00,meteohub,2013-06-18 12:21:00,
2013-06-18 05:26:00,54.1,51.8,30.04,NNW,346,6.0,19.0,92,0.00,,,0.00,meteohub,2013-06-18 12:26:00,
2013-06-18 05:31:00,54.1,51.8,30.03,North,6,10.0,19.0,92,0.00,,,0.00,meteohub,2013-06-18 12:31:00,
2013-06-18 05:36:00,54.0,51.6,30.04,North,6,10.0,19.0,92,0.00,,,0.00,meteohub,2013-06-18 12:36:00,
2013-06-18 05:41:00,54.0,51.6,30.04,NNE,16,6.0,16.0,92,0.00,,,0.00,meteohub,2013-06-18 12:41:00,
2013-06-18 05:47:00,54.0,51.6,30.04,North,353,9.0,16.0,92,0.00,,,0.00,meteohub,2013-06-18 12:47:00,
2013-06-18 05:52:00,53.8,51.4,30.04,NNW,334,8.0,16.0,92,0.00,,,0.00,meteohub,2013-06-18 12:52:00,
2013-06-18 05:57:00,53.8,51.8,30.04,North,357,8.0,14.0,93,0.00,,,0.00,meteohub,2013-06-18 12:57:00,
2013-06-18 06:02:00,53.8,51.8,30.04,NNW,332,8.0,14.0,93,0.00,,,0.00,meteohub,2013-06-18 13:02:00,
2013-06-18 06:07:00,53.8,51.8,30.04,NNE,33,6.0,14.0,93,0.00,,,0.00,meteohub,2013-06-18 13:07:00,
2013-06-18 06:12:00,53.8,51.8,30.04,NNE,21,7.0,13.0,93,0.00,,,0.00,meteohub,2013-06-18 13:12:00,
2013-06-18 06:17:00,54.0,52.0,30.04,North,5,2.0,13.0,93,0.00,,,0.00,meteohub,2013-06-18 13:17:00,
2013-06-18 06:22:00,54.0,51.6,30.04,NNW,335,11.0,13.0,92,0.00,,,0.00,meteohub,2013-06-18 13:22:00,
2013-06-18 06:27:00,54.1,51.8,30.04,WNW,293,9.0,17.0,92,0.00,,,0.00,meteohub,2013-06-18 13:27:00,
2013-06-18 06:32:00,54.1,51.8,30.04,NW,320,4.0,17.0,92,0.00,,,0.00,meteohub,2013-06-18 13:32:00,
2013-06-18 06:37:00,54.1,51.6,30.04,NNW,336,5.0,17.0,91,0.00,,,0.00,meteohub,2013-06-18 13:37:00,
2013-06-18 06:42:00,54.3,51.8,30.04,NNW,344,4.0,16.0,91,0.00,,,0.00,meteohub,2013-06-18 13:42:00,
2013-06-18 06:47:00,54.3,51.8,30.04,NNW,341,4.0,15.0,91,0.00,,,0.00,meteohub,2013-06-18 13:47:00,
2013-06-18 06:52:00,54.5,52.0,30.04,NNW,342,5.0,12.0,91,0.00,,,0.00,meteohub,2013-06-18 13:52:00,
2013-06-18 06:57:00,54.7,52.2,30.04,NE,44,3.0,12.0,91,0.00,,,0.00,meteohub,2013-06-18 13:57:00,
2013-06-18 07:02:00,54.9,52.0,30.04,NW,320,1.0,12.0,90,0.00,,,0.00,meteohub,2013-06-18 14:02:00,
2013-06-18 07:07:00,54.9,52.0,30.04,WNW,297,5.0,12.0,90,0.00,,,0.00,meteohub,2013-06-18 14:07:00,
2013-06-18 07:12:00,55.0,52.2,30.04,SW,226,4.0,12.0,90,0.00,,,0.00,meteohub,2013-06-18 14:12:00,
2013-06-18 07:17:00,55.2,52.0,30.04,North,352,6.0,13.0,89,0.00,,,0.00,meteohub,2013-06-18 14:17:00,
2013-06-18 07:22:00,55.2,52.0,30.04,NW,309,8.0,14.0,89,0.00,,,0.00,meteohub,2013-06-18 14:22:00,
2013-06-18 07:27:00,55.2,52.0,30.04,WNW,300,6.0,16.0,89,0.00,,,0.00,meteohub,2013-06-18 14:27:00,
2013-06-18 07:32:00,55.2,52.0,30.04,North,11,7.0,21.0,89,0.00,,,0.00,meteohub,2013-06-18 14:32:00,
2013-06-18 07:37:00,55.4,52.2,30.04,North,8,9.0,21.0,89,0.00,,,0.00,meteohub,2013-06-18 14:37:00,
2013-06-18 07:42:00,55.4,52.2,30.04,NNW,348,10.0,21.0,89,0.00,,,0.00,meteohub,2013-06-18 14:42:00,
2013-06-18 07:47:00,55.6,52.3,30.04,North,356,6.0,16.0,89,0.00,,,0.00,meteohub,2013-06-18 14:47:00,
2013-06-18 07:52:00,55.6,52.3,30.04,North,359,6.0,15.0,89,0.00,,,0.00,meteohub,2013-06-18 14:52:00,
2013-06-18 07:57:00,55.6,52.2,30.04,NNW,327,8.0,15.0,88,0.00,,,0.00,meteohub,2013-06-18 14:57:00,
2013-06-18 08:02:00,55.6,52.2,30.05,NNW,336,6.0,17.0,88,0.00,,,0.00,meteohub,2013-06-18 15:02:00,
2013-06-18 08:07:00,55.6,52.2,30.05,North,0,5.0,17.0,88,0.00,,,0.00,meteohub,2013-06-18 15:07:00,
2013-06-18 08:12:00,55.6,52.2,30.05,North,0,8.0,17.0,88,0.00,,,0.00,meteohub,2013-06-18 15:12:00,
2013-06-18 08:17:00,55.6,52.2,30.05,North,349,9.0,20.0,88,0.00,,,0.00,meteohub,2013-06-18 15:17:00,
2013-06-18 08:22:00,55.6,52.2,30.05,North,8,11.0,20.0,88,0.00,,,0.00,meteohub,2013-06-18 15:22:00,
2013-06-18 08:27:00,55.8,52.3,30.05,North,352,11.0,20.0,88,0.00,,,0.00,meteohub,2013-06-18 15:27:00,
2013-06-18 08:32:00,55.9,52.5,30.05,North,11,14.0,15.0,88,0.00,,,0.00,meteohub,2013-06-18 15:32:00,
2013-06-18 08:37:00,55.9,52.5,30.05,NNW,335,6.0,15.0,88,0.00,,,0.00,meteohub,2013-06-18 15:37:00,
2013-06-18 08:42:00,55.9,52.2,30.05,North,11,4.0,15.0,87,0.00,,,0.00,meteohub,2013-06-18 15:42:00,
2013-06-18 08:47:00,55.9,52.2,30.05,North,352,6.0,16.0,87,0.00,,,0.00,meteohub,2013-06-18 15:47:00,
2013-06-18 08:52:00,56.1,52.3,30.05,NNW,345,11.0,16.0,87,0.00,,,0.00,meteohub,2013-06-18 15:52:00,
2013-06-18 08:57:00,56.5,52.3,30.05,NNW,348,4.0,17.0,86,0.00,,,0.00,meteohub,2013-06-18 15:57:00,
2013-06-18 09:03:00,56.8,52.3,30.05,North,359,8.0,17.0,85,0.00,,,0.00,meteohub,2013-06-18 16:03:00,
2013-06-18 09:08:00,57.0,52.5,30.05,NE,41,7.0,14.0,85,0.00,,,0.00,meteohub,2013-06-18 16:08:00,
2013-06-18 09:13:00,57.0,52.5,30.06,NNW,334,5.0,14.0,85,0.00,,,0.00,meteohub,2013-06-18 16:13:00,
2013-06-18 09:18:00,57.0,52.5,30.05,ENE,70,6.0,15.0,85,0.00,,,0.00,meteohub,2013-06-18 16:18:00,
2013-06-18 09:23:00,57.2,52.3,30.06,WNW,298,5.0,15.0,84,0.00,,,0.00,meteohub,2013-06-18 16:23:00,
2013-06-18 09:28:00,57.4,52.5,30.05,North,11,9.0,15.0,84,0.00,,,0.00,meteohub,2013-06-18 16:28:00,
2013-06-18 09:33:00,57.4,52.5,30.05,NNE,13,12.0,14.0,84,0.00,,,0.00,meteohub,2013-06-18 16:33:00,
2013-06-18 09:38:00,57.6,52.5,30.05,NNW,342,5.0,16.0,83,0.00,,,0.00,meteohub,2013-06-18 16:38:00,
2013-06-18 09:44:00,57.7,52.3,30.05,NNW,344,7.0,16.0,82,0.00,,,0.00,meteohub,2013-06-18 16:44:00,
2013-06-18 09:49:00,57.7,52.3,30.05,North,352,16.0,16.0,82,0.00,,,0.00,meteohub,2013-06-18 16:49:00,
2013-06-18 09:54:00,57.7,52.7,30.05,WNW,287,2.0,16.0,83,0.00,,,0.00,meteohub,2013-06-18 16:54:00,
2013-06-18 09:59:00,57.9,52.5,30.05,North,354,10.0,17.0,82,0.00,,,0.00,meteohub,2013-06-18 16:59:00,
2013-06-18 10:04:00,57.9,52.5,30.05,North,358,13.0,17.0,82,0.00,,,0.00,meteohub,2013-06-18 17:04:00,
2013-06-18 10:09:00,58.3,52.9,30.05,North,358,13.0,18.0,82,0.00,,,0.00,meteohub,2013-06-18 17:09:00,
2013-06-18 10:14:00,58.3,52.9,30.05,NNW,330,8.0,18.0,82,0.00,,,0.00,meteohub,2013-06-18 17:14:00,
2013-06-18 10:20:00,58.3,52.9,30.05,NNW,347,10.0,17.0,82,0.00,,,0.00,meteohub,2013-06-18 17:20:00,
2013-06-18 10:25:00,58.1,52.7,30.05,NW,318,6.0,17.0,82,0.00,,,0.00,meteohub,2013-06-18 17:25:00,
2013-06-18 10:30:00,58.5,53.2,30.06,NNE,13,5.0,18.0,83,0.00,,,0.00,meteohub,2013-06-18 17:30:00,
2013-06-18 10:35:00,58.5,53.1,30.05,NNW,335,6.0,18.0,82,0.00,,,0.00,meteohub,2013-06-18 17:35:00,
2013-06-18 10:40:00,58.5,53.1,30.05,NNW,345,12.0,18.0,82,0.00,,,0.00,meteohub,2013-06-18 17:40:00,
2013-06-18 10:45:00,58.5,53.2,30.05,North,8,19.0,19.0,83,0.00,,,0.00,meteohub,2013-06-18 17:45:00,
2013-06-18 10:50:00,58.5,53.2,30.05,North,353,8.0,19.0,83,0.00,,,0.00,meteohub,2013-06-18 17:50:00,
2013-06-18 10:55:00,58.3,53.4,30.05,North,356,11.0,19.0,84,0.00,,,0.00,meteohub,2013-06-18 17:55:00,
2013-06-18 11:00:00,58.3,53.1,30.05,North,358,10.0,19.0,83,0.00,,,0.00,meteohub,2013-06-18 18:00:00,
2013-06-18 11:06:00,58.3,53.1,30.05,NW,317,11.0,17.0,83,0.00,,,0.00,meteohub,2013-06-18 18:06:00,
2013-06-18 11:11:00,58.3,53.4,30.05,NNE,19,7.0,18.0,84,0.00,,,0.00,meteohub,2013-06-18 18:11:00,
2013-06-18 11:16:00,58.3,53.1,30.05,NNW,347,6.0,18.0,83,0.00,,,0.00,meteohub,2013-06-18 18:16:00,
2013-06-18 11:21:00,58.5,53.6,30.05,North,350,6.0,20.0,84,0.00,,,0.00,meteohub,2013-06-18 18:21:00,
2013-06-18 11:26:00,59.2,53.6,30.05,NNE,17,7.0,20.0,82,0.00,,,0.00,meteohub,2013-06-18 18:26:00,
2013-06-18 11:31:00,59.2,53.4,30.06,North,352,6.0,15.0,81,0.00,,,0.00,meteohub,2013-06-18 18:31:00,
2013-06-18 11:36:00,58.8,53.1,30.05,North,6,12.0,16.0,81,0.00,,,0.00,meteohub,2013-06-18 18:36:00,
2013-06-18 11:41:00,58.8,53.4,30.06,North,0,9.0,16.0,82,0.00,,,0.00,meteohub,2013-06-18 18:41:00,
2013-06-18 11:46:00,58.6,53.4,30.06,NNE,25,8.0,16.0,83,0.00,,,0.00,meteohub,2013-06-18 18:46:00,
2013-06-18 11:52:00,58.5,53.2,30.06,NNE,26,10.0,17.0,83,0.00,,,0.00,meteohub,2013-06-18 18:52:00,
2013-06-18 11:57:00,58.1,52.9,30.06,NNE,20,10.0,18.0,83,0.00,,,0.00,meteohub,2013-06-18 18:57:00,
2013-06-18 12:02:00,57.7,52.9,30.06,North,352,7.0,18.0,84,0.00,,,0.00,meteohub,2013-06-18 19:02:00,
2013-06-18 12:07:00,57.9,53.1,30.06,NNE,23,8.0,18.0,84,0.00,,,0.00,meteohub,2013-06-18 19:07:00,
2013-06-18 12:12:00,57.9,53.1,30.06,NNW,344,4.0,17.0,84,0.00,,,0.00,meteohub,2013-06-18 19:12:00,
2013-06-18 12:17:00,57.6,53.1,30.06,North,4,13.0,16.0,85,0.00,,,0.00,meteohub,2013-06-18 19:17:00,
2013-06-18 12:22:00,58.1,53.2,30.06,NNW,341,8.0,22.0,84,0.00,,,0.00,meteohub,2013-06-18 19:22:00,
2013-06-18 12:27:00,58.3,53.1,30.06,North,352,9.0,22.0,83,0.00,,,0.00,meteohub,2013-06-18 19:27:00,
2013-06-18 12:32:00,57.9,53.1,30.06,NNE,12,11.0,19.0,84,0.00,,,0.00,meteohub,2013-06-18 19:32:00,
2013-06-18 12:37:00,58.3,53.1,30.06,NNE,24,5.0,21.0,83,0.00,,,0.00,meteohub,2013-06-18 19:37:00,
2013-06-18 12:42:00,58.3,53.4,30.06,North,354,8.0,21.0,84,0.00,,,0.00,meteohub,2013-06-18 19:42:00,
2013-06-18 12:47:00,58.5,53.2,30.06,North,11,5.0,19.0,83,0.00,,,0.00,meteohub,2013-06-18 19:47:00,
2013-06-18 12:52:00,57.9,53.1,30.06,NW,317,10.0,23.0,84,0.00,,,0.00,meteohub,2013-06-18 19:52:00,
2013-06-18 12:57:00,57.9,53.1,30.06,NW,325,8.0,23.0,84,0.00,,,0.00,meteohub,2013-06-18 19:57:00,
2013-06-18 13:02:00,58.1,53.2,30.05,NNW,340,7.0,23.0,84,0.00,,,0.00,meteohub,2013-06-18 20:02:00,
2013-06-18 13:07:00,58.3,53.1,30.05,NNE,23,3.0,19.0,83,0.00,,,0.00,meteohub,2013-06-18 20:07:00,
2013-06-18 13:12:00,58.5,53.2,30.05,North,9,16.0,20.0,83,0.00,,,0.00,meteohub,2013-06-18 20:12:00,
2013-06-18 13:17:00,58.5,53.2,30.05,NNE,15,10.0,20.0,83,0.00,,,0.00,meteohub,2013-06-18 20:17:00,
2013-06-18 13:22:00,58.8,53.4,30.05,WNW,302,9.0,20.0,82,0.00,,,0.00,meteohub,2013-06-18 20:22:00,
2013-06-18 13:27:00,58.8,53.4,30.05,NNE,16,10.0,20.0,82,0.00,,,0.00,meteohub,2013-06-18 20:27:00,
2013-06-18 13:32:00,59.2,53.6,30.05,North,350,11.0,20.0,82,0.00,,,0.00,meteohub,2013-06-18 20:32:00,
2013-06-18 13:38:00,59.2,53.4,30.05,NNE,18,13.0,20.0,81,0.00,,,0.00,meteohub,2013-06-18 20:38:00,
2013-06-18 13:43:00,59.4,53.2,30.05,NNE,29,10.0,21.0,80,0.00,,,0.00,meteohub,2013-06-18 20:43:00,
2013-06-18 13:48:00,59.7,53.6,30.05,NNE,23,10.0,21.0,80,0.00,,,0.00,meteohub,2013-06-18 20:48:00,
2013-06-18 13:53:00,59.5,53.4,30.05,NNE,19,12.0,19.0,80,0.00,,,0.00,meteohub,2013-06-18 20:53:00,
2013-06-18 13:58:00,59.7,53.2,30.05,NNW,340,5.0,20.0,79,0.00,,,0.00,meteohub,2013-06-18 20:58:00,
2013-06-18 14:03:00,59.9,53.4,30.05,NNE,22,8.0,21.0,79,0.00,,,0.00,meteohub,2013-06-18 21:03:00,
2013-06-18 14:08:00,59.7,53.6,30.05,NNW,340,18.0,21.0,80,0.00,,,0.00,meteohub,2013-06-18 21:08:00,
2013-06-18 14:14:00,60.1,54.0,30.05,North,356,6.0,21.0,80,0.00,,,0.00,meteohub,2013-06-18 21:14:00,
2013-06-18 14:19:00,60.4,54.0,30.04,North,9,8.0,21.0,79,0.00,,,0.00,meteohub,2013-06-18 21:19:00,
2013-06-18 14:24:00,60.8,54.0,30.04,NNE,19,8.0,20.0,78,0.00,,,0.00,meteohub,2013-06-18 21:24:00,
2013-06-18 14:29:00,60.6,53.8,30.04,North,355,12.0,19.0,78,0.00,,,0.00,meteohub,2013-06-18 21:29:00,
2013-06-18 14:34:00,60.6,53.8,30.04,North,11,17.0,22.0,78,0.00,,,0.00,meteohub,2013-06-18 21:34:00,
2013-06-18 14:39:00,60.6,53.4,30.04,North,9,10.0,22.0,77,0.00,,,0.00,meteohub,2013-06-18 21:39:00,
2013-06-18 14:44:00,60.8,54.0,30.04,North,9,13.0,27.0,78,0.00,,,0.00,meteohub,2013-06-18 21:44:00,
2013-06-18 14:50:00,60.6,54.1,30.04,NW,309,10.0,27.0,79,0.00,,,0.00,meteohub,2013-06-18 21:50:00,
2013-06-18 14:55:00,60.6,53.8,30.04,WNW,297,9.0,27.0,78,0.00,,,0.00,meteohub,2013-06-18 21:55:00,
2013-06-18 15:00:00,60.4,54.0,30.04,NNE,19,8.0,23.0,79,0.00,,,0.00,meteohub,2013-06-18 22:00:00,
2013-06-18 15:05:00,60.1,54.0,30.04,ENE,72,7.0,23.0,80,0.00,,,0.00,meteohub,2013-06-18 22:05:00,
2013-06-18 15:10:00,60.3,53.8,30.05,North,352,8.0,21.0,79,0.00,,,0.00,meteohub,2013-06-18 22:10:00,
2013-06-18 15:15:00,60.6,54.5,30.05,NNW,335,9.0,25.0,80,0.00,,,0.00,meteohub,2013-06-18 22:15:00,
2013-06-18 15:20:00,61.0,54.1,30.05,NNW,338,10.0,25.0,78,0.00,,,0.00,meteohub,2013-06-18 22:20:00,
2013-06-18 15:25:00,60.1,54.0,30.04,NNW,347,8.0,24.0,80,0.00,,,0.00,meteohub,2013-06-18 22:25:00,
2013-06-18 15:30:00,59.7,54.1,30.04,NNW,342,12.0,24.0,82,0.00,,,0.00,meteohub,2013-06-18 22:30:00,
2013-06-18 15:35:00,59.5,53.8,30.04,North,4,7.0,24.0,81,0.00,,,0.00,meteohub,2013-06-18 22:35:00,
2013-06-18 15:41:00,59.5,54.0,30.04,NNE,23,7.0,22.0,82,0.00,,,0.00,meteohub,2013-06-18 22:41:00,
2013-06-18 15:46:00,59.0,53.6,30.04,WNW,292,15.0,21.0,82,0.00,,,0.00,meteohub,2013-06-18 22:46:00,
2013-06-18 15:51:00,58.8,54.0,30.04,North,350,9.0,19.0,84,0.00,,,0.00,meteohub,2013-06-18 22:51:00,
2013-06-18 15:56:00,58.8,54.0,30.04,North,11,16.0,18.0,84,0.00,,,0.00,meteohub,2013-06-18 22:56:00,
2013-06-18 16:01:00,58.8,54.0,30.04,North,8,18.0,18.0,84,0.00,,,0.00,meteohub,2013-06-18 23:01:00,
2013-06-18 16:06:00,58.8,54.3,30.03,North,356,10.0,26.0,85,0.00,,,0.00,meteohub,2013-06-18 23:06:00,
2013-06-18 16:11:00,58.8,54.3,30.03,NNW,338,12.0,26.0,85,0.00,,,0.00,meteohub,2013-06-18 23:11:00,
2013-06-18 16:16:00,59.4,54.5,30.04,NNE,13,11.0,26.0,84,0.00,,,0.00,meteohub,2013-06-18 23:16:00,
2013-06-18 16:22:00,59.5,54.3,30.03,NNW,328,8.0,24.0,83,0.00,,,0.00,meteohub,2013-06-18 23:22:00,
2013-06-18 16:27:00,59.7,54.1,30.03,NE,44,8.0,24.0,82,0.00,,,0.00,meteohub,2013-06-18 23:27:00,
2013-06-18 16:32:00,59.4,54.1,30.03,NNW,343,11.0,19.0,83,0.00,,,0.00,meteohub,2013-06-18 23:32:00,
2013-06-18 16:37:00,59.0,54.1,30.03,NNW,334,8.0,18.0,84,0.00,,,0.00,meteohub,2013-06-18 23:37:00,
2013-06-18 16:42:00,59.2,54.3,30.03,NNW,348,12.0,19.0,84,0.00,,,0.00,meteohub,2013-06-18 23:42:00,
2013-06-18 16:47:00,59.0,54.1,30.03,NE,44,5.0,19.0,84,0.00,,,0.00,meteohub,2013-06-18 23:47:00,
2013-06-18 16:52:00,58.8,54.0,30.03,NNW,338,7.0,19.0,84,0.00,,,0.00,meteohub,2013-06-18 23:52:00,
2013-06-18 16:57:00,58.6,53.8,30.03,NNW,340,10.0,17.0,84,0.00,,,0.00,meteohub,2013-06-18 23:57:00,
2013-06-18 17:02:00,58.8,54.0,30.03,North,6,10.0,17.0,84,0.00,,,0.00,meteohub,2013-06-19 00:02:00,
2013-06-18 17:07:00,58.6,53.8,30.03,NNE,13,14.0,20.0,84,0.00,,,0.00,meteohub,2013-06-19 00:07:00,
2013-06-18 17:12:00,58.6,53.4,30.03,NW,326,9.0,20.0,83,0.00,,,0.00,meteohub,2013-06-19 00:12:00,
2013-06-18 17:17:00,58.5,53.6,30.03,NNE,13,9.0,20.0,84,0.00,,,0.00,meteohub,2013-06-19 00:17:00,
2013-06-18 17:22:00,58.3,53.8,30.02,NE,44,11.0,19.0,85,0.00,,,0.00,meteohub,2013-06-19 00:22:00,
2013-06-18 17:27:00,58.5,53.6,30.02,North,354,12.0,18.0,84,0.00,,,0.00,meteohub,2013-06-19 00:27:00,
2013-06-18 17:32:00,58.5,54.0,30.02,North,9,13.0,18.0,85,0.00,,,0.00,meteohub,2013-06-19 00:32:00,
2013-06-18 17:37:00,58.5,53.6,30.02,NNE,12,14.0,18.0,84,0.00,,,0.00,meteohub,2013-06-19 00:37:00,
2013-06-18 17:42:00,58.5,53.6,30.02,North,0,14.0,19.0,84,0.00,,,0.00,meteohub,2013-06-19 00:42:00,
2013-06-18 17:47:00,58.5,53.6,30.01,NE,34,6.0,21.0,84,0.00,,,0.00,meteohub,2013-06-19 00:47:00,
2013-06-18 17:52:00,58.6,53.8,30.01,NNE,25,10.0,21.0,84,0.00,,,0.00,meteohub,2013-06-19 00:52:00,
2013-06-18 17:57:00,58.6,53.8,30.01,SSW,201,7.0,21.0,84,0.00,,,0.00,meteohub,2013-06-19 00:57:00,
2013-06-18 18:02:00,58.6,53.8,30.01,North,356,17.0,17.0,84,0.00,,,0.00,meteohub,2013-06-19 01:02:00,
2013-06-18 18:07:00,58.3,53.4,30.01,NNE,26,8.0,20.0,84,0.00,,,0.00,meteohub,2013-06-19 01:07:00,
2013-06-18 18:12:00,58.3,53.8,30.01,NNW,340,8.0,20.0,85,0.00,,,0.00,meteohub,2013-06-19 01:12:00,
2013-06-18 18:17:00,58.3,53.4,30.00,North,356,17.0,20.0,84,0.00,,,0.00,meteohub,2013-06-19 01:17:00,
2013-06-18 18:22:00,58.3,53.8,30.01,NNE,25,13.0,19.0,85,0.00,,,0.00,meteohub,2013-06-19 01:22:00,
2013-06-18 18:27:00,58.3,53.8,30.00,North,6,5.0,20.0,85,0.00,,,0.00,meteohub,2013-06-19 01:27:00,
2013-06-18 18:32:00,58.5,54.0,30.00,West,265,8.0,20.0,85,0.00,,,0.00,meteohub,2013-06-19 01:32:00,
2013-06-18 18:37:00,58.3,53.8,30.01,North,354,4.0,20.0,85,0.00,,,0.00,meteohub,2013-06-19 01:37:00,
2013-06-18 18:43:00,57.9,53.4,30.01,NNW,328,2.0,17.0,85,0.00,,,0.00,meteohub,2013-06-19 01:43:00,
2013-06-18 18:48:00,58.1,53.6,30.01,NNE,18,8.0,17.0,85,0.00,,,0.00,meteohub,2013-06-19 01:48:00,
2013-06-18 18:53:00,57.9,53.4,30.01,NNW,345,6.0,17.0,85,0.00,,,0.00,meteohub,2013-06-19 01:53:00,
2013-06-18 18:58:00,57.7,53.2,30.01,NW,316,3.0,17.0,85,0.00,,,0.00,meteohub,2013-06-19 01:58:00,
2013-06-18 19:03:00,57.7,53.2,30.01,North,349,11.0,15.0,85,0.00,,,0.00,meteohub,2013-06-19 02:03:00,
2013-06-18 19:08:00,57.6,53.4,30.01,NNE,20,2.0,15.0,86,0.00,,,0.00,meteohub,2013-06-19 02:08:00,
2013-06-18 19:13:00,57.6,53.1,30.01,NNE,13,9.0,15.0,85,0.00,,,0.00,meteohub,2013-06-19 02:13:00,
2013-06-18 19:18:00,57.4,53.2,30.01,NW,321,7.0,14.0,86,0.00,,,0.00,meteohub,2013-06-19 02:18:00,
2013-06-18 19:23:00,57.2,53.1,30.01,North,352,12.0,14.0,86,0.00,,,0.00,meteohub,2013-06-19 02:23:00,
2013-06-18 19:28:00,57.2,53.1,30.01,WNW,293,6.0,13.0,86,0.00,,,0.00,meteohub,2013-06-19 02:28:00,
2013-06-18 19:33:00,57.0,52.9,30.01,NNE,15,5.0,13.0,86,0.00,,,0.00,meteohub,2013-06-19 02:33:00,
2013-06-18 19:39:00,56.8,52.7,30.01,NNE,20,8.0,16.0,86,0.00,,,0.00,meteohub,2013-06-19 02:39:00,
2013-06-18 19:44:00,56.7,52.9,30.01,NNW,334,7.0,16.0,87,0.00,,,0.00,meteohub,2013-06-19 02:44:00,
2013-06-18 19:49:00,56.5,52.7,30.01,North,6,8.0,16.0,87,0.00,,,0.00,meteohub,2013-06-19 02:49:00,
2013-06-18 19:54:00,56.3,52.5,30.01,NNE,15,8.0,13.0,87,0.00,,,0.00,meteohub,2013-06-19 02:54:00,
2013-06-18 19:59:00,55.9,52.5,30.01,NE,39,7.0,13.0,88,0.00,,,0.00,meteohub,2013-06-19 02:59:00,
2013-06-18 20:04:00,55.8,52.5,30.01,North,352,6.0,13.0,89,0.00,,,0.00,meteohub,2013-06-19 03:04:00,
2013-06-18 20:09:00,55.6,52.3,30.01,NNW,346,9.0,13.0,89,0.00,,,0.00,meteohub,2013-06-19 03:09:00,
2013-06-18 20:14:00,55.2,52.3,30.01,NNE,13,9.0,15.0,90,0.00,,,0.00,meteohub,2013-06-19 03:14:00,
2013-06-18 20:19:00,55.0,52.2,30.01,NNW,330,6.0,15.0,90,0.00,,,0.00,meteohub,2013-06-19 03:19:00,
2013-06-18 20:24:00,55.0,52.2,30.01,NNE,22,8.0,15.0,90,0.00,,,0.00,meteohub,2013-06-19 03:24:00,
2013-06-18 20:29:00,54.9,52.3,30.01,NNE,16,8.0,15.0,91,0.00,,,0.00,meteohub,2013-06-19 03:29:00,
2013-06-18 20:35:00,54.7,52.2,30.01,NW,314,7.0,13.0,91,0.00,,,0.00,meteohub,2013-06-19 03:35:00,
2013-06-18 20:40:00,54.5,52.0,30.02,NNW,335,7.0,12.0,91,0.00,,,0.00,meteohub,2013-06-19 03:40:00,
2013-06-18 20:45:00,54.3,51.8,30.01,North,4,8.0,14.0,91,0.00,,,0.00,meteohub,2013-06-19 03:45:00,
2013-06-18 20:50:00,54.3,51.8,30.02,NNW,342,5.0,14.0,91,0.00,,,0.00,meteohub,2013-06-19 03:50:00,
2013-06-18 20:55:00,54.3,52.0,30.02,NNW,332,4.0,13.0,92,0.00,,,0.00,meteohub,2013-06-19 03:55:00,
2013-06-18 21:00:00,54.3,52.0,30.01,North,5,7.0,13.0,92,0.00,,,0.00,meteohub,2013-06-19 04:00:00,
2013-06-18 21:01:00,54.3,52.0,30.01,NW,320,3.0,13.0,92,0.00,,,0.00,meteohub,2013-06-19 04:01:00,
2013-06-18 21:02:00,54.3,52.0,30.01,WSW,255,3.0,13.0,92,0.00,,,0.00,meteohub,2013-06-19 04:02:00,
2013-06-18 21:06:00,54.3,52.0,30.01,NW,309,5.0,10.0,92,0.00,,,0.00,meteohub,2013-06-19 04:06:00,
2013-06-18 21:11:00,54.3,52.0,30.01,NNE,18,5.0,13.0,92,0.00,,,0.00,meteohub,2013-06-19 04:11:00,
2013-06-18 21:16:00,54.3,52.0,30.02,NNW,347,6.0,13.0,92,0.00,,,0.00,meteohub,2013-06-19 04:16:00,
2013-06-18 21:22:00,54.3,52.0,30.02,North,354,2.0,13.0,92,0.00,,,0.00,meteohub,2013-06-19 04:22:00,
2013-06-18 21:27:00,54.3,52.0,30.01,NE,40,6.0,12.0,92,0.00,,,0.00,meteohub,2013-06-19 04:27:00,
2013-06-18 21:32:00,54.3,52.0,30.02,NNE,15,5.0,11.0,92,0.00,,,0.00,meteohub,2013-06-19 04:32:00,
2013-06-18 21:37:00,54.3,52.0,30.01,ESE,120,8.0,11.0,92,0.00,,,0.00,meteohub,2013-06-19 04:37:00,
2013-06-18 21:42:00,54.3,52.0,30.02,South,169,1.0,11.0,92,0.00,,,0.00,meteohub,2013-06-19 04:42:00,
2013-06-18 21:47:00,54.3,52.0,30.02,West,269,3.0,11.0,92,0.00,,,0.00,meteohub,2013-06-19 04:47:00,
2013-06-18 21:52:00,54.3,52.0,30.02,North,11,4.0,12.0,92,0.00,,,0.00,meteohub,2013-06-19 04:52:00,
2013-06-18 21:57:00,54.5,52.0,30.02,North,9,3.0,12.0,91,0.00,,,0.00,meteohub,2013-06-19 04:57:00,
2013-06-18 22:02:00,54.7,52.2,30.02,NNE,19,4.0,12.0,91,0.00,,,0.00,meteohub,2013-06-19 05:02:00,
2013-06-18 22:07:00,54.7,52.2,30.02,NNE,13,1.0,12.0,91,0.00,,,0.00,meteohub,2013-06-19 05:07:00,
2013-06-18 22:12:00,54.7,52.2,30.03,NNE,16,1.0,10.0,91,0.00,,,0.00,meteohub,2013-06-19 05:12:00,
2013-06-18 22:17:00,54.7,52.2,30.03,North,9,2.0,10.0,91,0.00,,,0.00,meteohub,2013-06-19 05:17:00,
2013-06-18 22:22:00,54.7,51.8,30.03,NW,323,3.0,9.0,90,0.00,,,0.00,meteohub,2013-06-19 05:22:00,
2013-06-18 22:27:00,54.7,51.8,30.03,NNW,332,3.0,9.0,90,0.00,,,0.00,meteohub,2013-06-19 05:27:00,
2013-06-18 22:32:00,54.7,51.8,30.03,North,6,3.0,9.0,90,0.00,,,0.00,meteohub,2013-06-19 05:32:00,
2013-06-18 22:37:00,54.7,51.4,30.03,NNE,25,1.0,11.0,89,0.00,,,0.00,meteohub,2013-06-19 05:37:00,
2013-06-18 22:42:00,54.7,51.4,30.03,NNW,342,3.0,11.0,89,0.00,,,0.00,meteohub,2013-06-19 05:42:00,
2013-06-18 22:47:00,54.7,51.4,30.03,NNW,330,3.0,11.0,89,0.00,,,0.00,meteohub,2013-06-19 05:47:00,
2013-06-18 22:52:00,54.9,51.6,30.02,NNW,335,8.0,9.0,89,0.00,,,0.00,meteohub,2013-06-19 05:52:00,
2013-06-18 22:57:00,54.9,51.4,30.02,North,11,5.0,10.0,88,0.00,,,0.00,meteohub,2013-06-19 05:57:00,
2013-06-18 23:02:00,54.9,51.4,30.02,North,356,10.0,10.0,88,0.00,,,0.00,meteohub,2013-06-19 06:02:00,
2013-06-18 23:07:00,54.9,51.1,30.02,North,3,5.0,13.0,87,0.00,,,0.00,meteohub,2013-06-19 06:07:00,
2013-06-18 23:12:00,54.9,51.4,30.02,NW,326,7.0,13.0,88,0.00,,,0.00,meteohub,2013-06-19 06:12:00,
2013-06-18 23:17:00,54.9,51.1,30.02,NNE,32,4.0,13.0,87,0.00,,,0.00,meteohub,2013-06-19 06:17:00,
2013-06-18 23:22:00,54.9,51.1,30.02,ENE,68,2.0,12.0,87,0.00,,,0.00,meteohub,2013-06-19 06:22:00,
2013-06-18 23:28:00,54.9,51.1,30.02,NNW,346,4.0,12.0,87,0.00,,,0.00,meteohub,2013-06-19 06:28:00,
2013-06-18 23:33:00,54.9,51.1,30.02,ENE,60,4.0,12.0,87,0.00,,,0.00,meteohub,2013-06-19 06:33:00,
2013-06-18 23:38:00,54.9,51.1,30.03,North,352,8.0,9.0,87,0.00,,,0.00,meteohub,2013-06-19 06:38:00,
2013-06-18 23:43:00,54.9,51.1,30.03,North,356,2.0,13.0,87,0.00,,,0.00,meteohub,2013-06-19 06:43:00,
2013-06-18 23:48:00,54.9,51.1,30.03,NNW,345,4.0,13.0,87,0.00,,,0.00,meteohub,2013-06-19 06:48:00,
2013-06-18 23:53:00,54.9,50.7,30.03,NNE,16,4.0,13.0,86,0.00,,,0.00,meteohub,2013-06-19 06:53:00,
2013-06-18 23:58:00,54.9,50.7,30.03,NNE,20,3.0,12.0,86,0.00,,,0.00,meteohub,2013-06-19 06:58:00,